GW4318 Weather Reports


Display with metric or nautical units.
time (UTC)temp
F
wind
direction
speed
MPH
gust
MPH
rain 1hr
in
rain 24hr
in
rain mn
in
humidity
%
barometer
mb
20260507092543 49 311 1.0 2.0 0.01 0.18 0.03 98 1007.7
20260507091547 49 352 1.0 2.0 0.00 0.17 0.03 98 1007.6
20260507090527 49 312 1.0 2.0 0.00 0.17 0.03 98 1007.8
20260507085523 49 290 1.0 3.0 0.00 0.17 0.02 98 1007.9
20260507084524 49 303 1.0 2.0 0.00 0.17 0.02 98 1007.8
20260507083524 50 304 0.0 2.0 0.02 0.17 0.02 97 1007.6
20260507082523 50 278 2.0 3.0 0.02 0.17 0.02 97 1007.6
20260507081546 50 281 1.0 4.0 0.02 0.17 0.02 97 1007.2
20260507080528 50 272 1.0 2.0 0.02 0.17 0.02 97 1007.3
20260507075525 51 302 2.0 3.0 0.02 0.17 0.02 96 1007.6
20260507074526 52 290 2.0 4.0 0.02 0.17 0.02 95 1007.3
20260507073546 52 302 1.0 2.0 0.01 0.15 0.01 93 1007.3
20260507072525 53 289 2.0 4.0 0.00 0.15 0.00 96 1006.9
20260507071525 53 303 1.0 2.0 0.00 0.14 0.00 96 1006.7
20260507070606 53 269 2.0 4.0 0.00 0.14 0.00 96 1006.6
20260507065527 54 256 1.0 2.0 0.00 0.14 0.00 97 1006.6
20260507064527 54 274 1.0 2.0 0.00 0.14 0.00 97 1006.5
20260507063527 54 280 1.0 2.0 0.00 0.14 0.00 98 1006.6
20260507062526 54 259 1.0 2.0 0.00 0.14 0.00 98 1006.7
20260507061526 54 274 2.0 3.0 0.00 0.14 0.00 97 1006.6
20260507060526 54 272 1.0 2.0 0.00 0.14 0.00 97 1006.6
20260507055526 55 218 1.0 3.0 0.00 0.14 0.00 98 1006.6
20260507054526 55 270 1.0 2.0 0.00 0.14 0.00 98 1006.8
20260507053528 55 288 1.0 2.0 0.00 0.14 0.00 98 1006.9
20260507052547 56 253 0.0 3.0 0.00 0.14 0.00 98 1006.9
20260507051527 56 304 1.0 2.0 0.00 0.14 0.00 98 1006.8
20260507050527 56 275 2.0 3.0 0.00 0.14 0.00 98 1006.6
20260507045527 57 285 1.0 2.0 0.00 0.14 0.00 98 1006.9
20260507044529 57 270 2.0 3.0 0.00 0.14 0.00 99 1007.0
20260507043529 58 298 2.0 3.0 0.00 0.14 0.00 99 1006.8
20260507042527 58 265 2.0 3.0 0.00 0.14 0.00 99 1006.8
20260507041528 58 270 2.0 3.0 0.00 0.14 0.00 99 1006.8
20260507040527 58 278 3.0 5.0 0.00 0.14 0.00 100 1006.8
20260507035528 59 251 1.0 3.0 0.00 0.14 0.14 99 1007.0
20260507034528 59 261 2.0 4.0 0.00 0.14 0.14 99 1006.7
20260507033529 59 255 2.0 3.0 0.00 0.14 0.14 99 1006.6
20260507032530 59 233 1.0 2.0 0.00 0.14 0.14 100 1006.6
20260507031548 59 265 2.0 4.0 0.00 0.14 0.14 99 1006.3
20260507030528 59 236 2.0 2.0 0.00 0.14 0.14 99 1006.2
20260507025548 59 197 2.0 3.0 0.00 0.14 0.14 99 1005.9
20260507024529 59 208 1.0 3.0 0.00 0.14 0.14 99 1005.9
20260507023529 59 209 2.0 3.0 0.00 0.14 0.14 99 1006.0
20260507022549 59 171 2.0 4.0 0.00 0.14 0.14 99 1006.1
20260507021520 59 244 2.0 5.0 0.00 0.14 0.14 99 1006.0
20260507020532 59 251 2.0 4.0 0.00 0.14 0.14 99 1006.0
20260507015520 59 259 2.0 6.0 0.00 0.14 0.14 99 1006.0
20260507014528 59 190 2.0 4.0 0.00 0.14 0.14 99 1006.0
20260507013529 59 155 2.0 3.0 0.00 0.14 0.14 99 1006.0
20260507012550 59 140 2.0 4.0 0.00 0.14 0.14 99 1006.1
20260507011524 59 105 2.0 6.0 0.00 0.14 0.14 99 1006.2
20260507010521 59 237 2.0 5.0 0.00 0.14 0.14 99 1006.2
20260507005521 59 252 2.0 5.0 0.00 0.14 0.14 99 1006.2
20260507004550 59 204 2.0 4.0 0.00 0.14 0.14 99 1006.3
20260507003521 59 114 2.0 5.0 0.00 0.14 0.14 99 1006.3
20260507002518 59 127 2.0 7.0 0.00 0.14 0.14 100 1006.2
20260507001521 59 164 2.0 4.0 0.01 0.14 0.14 100 1006.3
20260507000520 59 228 1.0 4.0 0.04 0.14 0.14 99 1006.1
20260506235519 59 141 2.0 7.0 0.04 0.14 0.14 100 1006.0
20260506234519 59 127 2.0 8.0 0.04 0.14 0.14 100 1005.9
20260506233518 59 150 2.0 8.0 0.04 0.14 0.14 100 1005.9
20260506232519 59 172 1.0 4.0 0.04 0.14 0.14 99 1005.9
20260506231520 59 147 2.0 4.0 0.04 0.14 0.14 99 1005.9
20260506230519 59 168 2.0 6.0 0.01 0.11 0.11 99 1006.0
20260506225516 59 186 2.0 5.0 0.00 0.10 0.10 99 1006.0
20260506224537 59 241 2.0 3.0 0.00 0.10 0.10 99 1006.1
20260506223519 60 168 2.0 5.0 0.00 0.10 0.10 98 1006.1
20260506222522 60 138 2.0 7.0 0.00 0.10 0.10 98 1006.1
20260506221517 60 143 3.0 9.0 0.00 0.10 0.10 98 1006.2
20260506220538 60 137 2.0 9.0 0.00 0.10 0.10 98 1006.4
20260506215521 60 146 2.0 5.0 0.00 0.10 0.10 97 1006.3
20260506214519 60 189 2.0 4.0 0.00 0.10 0.10 96 1006.5
20260506213517 60 251 3.0 10.0 0.01 0.10 0.10 96 1006.6
20260506212538 60 254 2.0 8.0 0.01 0.10 0.10 96 1006.7
20260506211518 60 274 2.0 7.0 0.02 0.10 0.10 96 1006.8
20260506210518 60 162 2.0 5.0 0.02 0.10 0.10 96 1006.8
20260506205521 60 282 3.0 8.0 0.02 0.10 0.10 95 1006.8
20260506204518 61 99 1.0 5.0 0.02 0.10 0.10 95 1007.0
20260506203518 61 235 2.0 5.0 0.03 0.10 0.10 95 1007.2
20260506202538 61 264 3.0 7.0 0.04 0.09 0.09 95 1007.1
20260506201518 61 129 2.0 6.0 0.04 0.08 0.08 95 1007.1
20260506200518 61 248 2.0 8.0 0.04 0.08 0.08 94 1007.1
20260506195518 61 234 3.0 8.0 0.05 0.08 0.08 93 1007.1
20260506194519 62 207 2.0 7.0 0.06 0.08 0.08 91 1007.2
20260506193519 63 273 4.0 9.0 0.05 0.06 0.06 88 1007.2
20260506192537 64 134 3.0 10.0 0.05 0.05 0.05 87 1007.3
20260506191519 64 230 1.0 7.0 0.05 0.05 0.05 85 1007.2
20260506190520 65 248 2.0 6.0 0.04 0.04 0.04 81 1007.3
20260506185540 67 164 3.0 9.0 0.03 0.03 0.03 76 1007.4
20260506184537 68 258 4.0 8.0 0.02 0.02 0.02 73 1007.5
20260506183517 69 258 3.0 9.0 0.02 0.02 0.02 70 1007.5
20260506182520 70 168 4.0 12.0 0.01 0.01 0.01 67 1007.5
20260506181520 71 250 2.0 7.0 0.00 0.00 0.00 63 1007.4
20260506180520 71 137 4.0 10.0 0.00 0.00 0.00 61 1007.4
20260506175537 71 153 5.0 11.0 0.00 0.00 0.00 60 1007.5
20260506174517 72 198 4.0 8.0 0.00 0.00 0.00 59 1007.5
20260506173521 72 138 3.0 10.0 0.00 0.00 0.00 59 1007.5
20260506172517 72 185 5.0 10.0 0.00 0.00 0.00 59 1007.7
20260506171519 73 210 4.0 11.0 0.00 0.00 0.00 58 1007.8
20260506170518 73 213 3.0 8.0 0.00 0.00 0.00 58 1007.6
20260506165538 72 197 4.0 12.0 0.00 0.00 0.00 59 1007.8
20260506164518 71 234 4.0 10.0 0.00 0.00 0.00 60 1007.9
20260506163518 71 249 4.0 8.0 0.00 0.00 0.00 61 1008.1
20260506162519 71 253 4.0 12.0 0.00 0.00 0.00 62 1008.2
20260506161519 71 238 4.0 8.0 0.00 0.00 0.00 62 1008.4
20260506160539 71 164 5.0 12.0 0.00 0.00 0.00 62 1008.6
20260506155539 71 209 3.0 7.0 0.00 0.00 0.00 62 1008.7
20260506154519 71 266 4.0 8.0 0.00 0.00 0.00 62 1008.9
20260506153519 71 167 5.0 13.0 0.00 0.00 0.00 62 1009.0
20260506152537 71 188 5.0 13.0 0.00 0.00 0.00 62 1009.2
20260506151521 71 207 4.0 12.0 0.00 0.00 0.00 63 1009.2
20260506150540 71 135 4.0 9.0 0.00 0.00 0.00 63 1009.2
20260506145519 70 212 3.0 8.0 0.00 0.00 0.00 65 1009.4
20260506144517 70 198 4.0 11.0 0.00 0.00 0.00 66 1009.4
20260506143517 70 129 3.0 6.0 0.00 0.00 0.00 67 1009.3
20260506142521 69 156 3.0 9.0 0.00 0.00 0.00 68 1009.3
20260506141520 69 126 3.0 7.0 0.00 0.00 0.00 70 1009.2
20260506140539 68 241 3.0 8.0 0.00 0.00 0.00 70 1009.3
20260506135539 68 244 3.0 9.0 0.00 0.00 0.00 71 1009.4
20260506134517 67 143 2.0 7.0 0.00 0.00 0.00 73 1009.4
20260506133538 67 119 3.0 8.0 0.00 0.00 0.00 74 1009.7
20260506132518 66 211 2.0 8.0 0.00 0.00 0.00 75 1010.0
20260506131518 66 219 2.0 6.0 0.00 0.00 0.00 76 1010.0
20260506130519 65 158 3.0 7.0 0.00 0.00 0.00 76 1010.0
20260506125518 65 215 3.0 6.0 0.00 0.00 0.00 77 1009.9
20260506124518 65 133 3.0 8.0 0.00 0.00 0.00 77 1009.9
20260506123518 65 187 3.0 7.0 0.00 0.00 0.00 77 1010.0
20260506122518 63 133 2.0 5.0 0.00 0.00 0.00 80 1010.1
20260506121519 63 266 2.0 6.0 0.00 0.00 0.00 79 1010.2
20260506120525 63 136 2.0 3.0 0.00 0.00 0.00 80 1010.0
20260506115526 62 117 2.0 4.0 0.00 0.00 0.00 81 1010.2
20260506114519 62 138 2.0 8.0 0.00 0.00 0.00 81 1010.3
20260506113525 62 239 2.0 5.0 0.00 0.00 0.00 81 1010.5
20260506112520 62 181 3.0 6.0 0.00 0.00 0.00 81 1010.7
20260506111525 62 112 2.0 4.0 0.00 0.00 0.00 81 1010.3
20260506110525 61 116 2.0 4.0 0.00 0.00 0.00 82 1010.4
20260506105525 61 256 2.0 5.0 0.00 0.00 0.00 83 1010.4
20260506104525 60 275 2.0 5.0 0.00 0.00 0.00 84 1010.4
20260506103527 60 138 2.0 4.0 0.00 0.00 0.00 84 1010.4
20260506102525 60 230 2.0 4.0 0.00 0.00 0.00 83 1010.5
20260506101526 60 97 2.0 4.0 0.00 0.00 0.00 83 1010.4
20260506100528 60 254 2.0 3.0 0.00 0.00 0.00 83 1010.3
20260506095526 60 132 2.0 5.0 0.00 0.00 0.00 83 1010.4
20260506094526 60 133 2.0 4.0 0.00 0.00 0.00 84 1010.1
20260506093526 60 246 2.0 3.0 0.00 0.00 0.00 84 1010.2